Weather History for Burns, OR

Change the Weather History Date:

Saturday, February 16, 2013

  Actual Average Record
Temperature  
Mean Temperature 38 °F 29 °F  
Max Temperature 52 °F 39 °F 62 °F (1977)
Min Temperature 23 °F 18 °F -7 °F (1956)
Degree Days  
Heating Degree Days 27 36  
Month to date heating degree days 534 604  
Since 1 July heating degree days 4934 5117  
Cooling Degree Days 0 0  
Month to date cooling degree days 0 0  
Year to date cooling degree days 0 0  
Moisture  
Dew Point 26 °F    
Average Humidity 70    
Maximum Humidity 96    
Minimum Humidity 44    
Precipitation  
Precipitation T in 0.03 in 1.10 in (1947)
Month to date precipitation 0.09 0.56  
Year to date precipitation 0.48 1.75  
Sea Level Pressure  
Sea Level Pressure 30.20 in    
Wind  
Wind Speed 5 mph (West)    
Max Wind Speed 23 mph    
Max Gust Speed 31 mph    
Visibility 10 miles    
Events      
T = Trace of Precipitation, MM = Missing Value Source: NWS Daily Summary

Daily Weather History Graph

Daily Weather History Graph

Search for Another Location

Airport:

Trip Planner

Search our weather history database for the weather conditions in past years. The results will help you decide how hot, cold, wet, or windy it might be!

Date:

Astronomy

Feb. 16, 2013 Rise Set
Actual Time 6:52 AM PST 5:28 PM PST
Civil Twilight 6:22 AM PST 5:57 PM PST
Nautical Twilight 5:49 AM PST 6:30 PM PST
Astronomical Twilight 5:16 AM PST 7:04 PM PST
Moon 9:54 AM PST No Moon Set
Length of Visible Light 11h 34m
Length of Day
10h 35m
Waxing Crescent, 40% of the Moon is Illuminated
Feb 16
Waxing Crescent
Feb 17
First Quarter
Feb 25
Full
Mar 4
Last Quarter
Mar 11
New

Hourly Weather History & Observations

Time (PST) Temp. Windchill Dew Point Humidity Pressure Visibility Wind Dir Wind Speed Gust Speed Precip Events Conditions
12:53 AM 25.0 °F - 23.0 °F 92% 30.35 in 10.0 mi Calm Calm - N/A   Clear
1:53 AM 26.1 °F 21.9 °F 24.1 °F 92% 30.34 in 10.0 mi West 3.5 mph - N/A   Clear
2:53 AM 24.1 °F - 21.9 °F 91% 30.33 in 10.0 mi Calm Calm - N/A   Clear
3:53 AM 24.1 °F - 21.9 °F 91% 30.31 in 10.0 mi Calm Calm - N/A   Clear
4:53 AM 24.1 °F 18.2 °F 21.0 °F 88% 30.32 in 10.0 mi West 4.6 mph - N/A   Clear
5:53 AM 23.0 °F 17.0 °F 19.9 °F 88% 30.33 in 10.0 mi West 4.6 mph - N/A   Clear
6:53 AM 23.0 °F - 21.0 °F 92% 30.32 in 10.0 mi Calm Calm - N/A   Clear
7:53 AM 28.0 °F - 26.1 °F 92% 30.32 in 10.0 mi Calm Calm - N/A   Clear
8:53 AM 33.1 °F 28.7 °F 30.0 °F 89% 30.31 in 10.0 mi SW 4.6 mph - N/A   Clear
9:53 AM 39.9 °F - 32.0 °F 73% 30.27 in 10.0 mi Calm Calm - N/A   Clear
10:53 AM 41.0 °F - 28.0 °F 60% 30.25 in 10.0 mi Calm Calm - N/A   Clear
11:53 AM 43.0 °F - 30.9 °F 62% 30.22 in 10.0 mi Calm Calm - N/A   Clear
12:53 PM 46.9 °F - 33.1 °F 59% 30.17 in 10.0 mi SSE 5.8 mph - N/A   Clear
1:53 PM 50.0 °F - 34.0 °F 54% 30.13 in 10.0 mi Calm Calm - N/A   Clear
2:53 PM 51.1 °F - 30.0 °F 44% 30.09 in 10.0 mi WSW 12.7 mph - N/A   Clear
3:53 PM 51.1 °F - 30.0 °F 44% 30.06 in 10.0 mi WSW 9.2 mph - N/A   Clear
4:53 PM 46.0 °F 41.9 °F 30.0 °F 54% 30.05 in 10.0 mi WSW 8.1 mph - N/A   Clear
5:53 PM 42.1 °F 33.1 °F 30.9 °F 65% 30.09 in 10.0 mi West 20.7 mph 26.5 mph N/A   Overcast
6:53 PM 39.0 °F 31.0 °F 28.0 °F 65% 30.10 in 10.0 mi West 13.8 mph - 0.00 in   Overcast
7:53 PM 35.1 °F 31.0 °F 27.0 °F 72% 30.09 in 10.0 mi WSW 4.6 mph - N/A   Mostly Cloudy
8:53 PM 34.0 °F 26.0 °F 21.0 °F 59% 30.10 in 10.0 mi West 10.4 mph - N/A   Clear
9:53 PM 30.9 °F 27.5 °F 21.0 °F 67% 30.10 in 10.0 mi NW 3.5 mph - N/A   Clear
10:53 PM 30.9 °F 23.5 °F 21.9 °F 69% 30.11 in 10.0 mi West 8.1 mph - N/A   Clear
11:53 PM 30.0 °F - 23.0 °F 75% 30.11 in 10.0 mi Calm Calm - N/A   Clear